This is the latest recevied weather packets stored in our database for station/object KN6CW-3. If no packets are shown the sender has not sent any weather packets the latest 10 day(s).
| Time | Temp. | Humidity | Pressure | Rain* | Wind** | Luminosity | Snow |
|---|---|---|---|---|---|---|---|
| 1777567642 | 9.44° C | 87% | 1008.5 hPa | 0 mm | - | 225 W/m² | - |
| 1777567341 | 9.44° C | 87% | 1008.5 hPa | 0 mm | - | 181 W/m² | - |
| 1777567041 | 9.44° C | 87% | 1008.5 hPa | 0 mm | - | 156 W/m² | - |
| 1777566741 | 9.44° C | 87% | 1008.4 hPa | 0 mm | - | 216 W/m² | - |
| 1777566447 | 10° C | 86% | 1008.4 hPa | 0 mm | - | 255 W/m² | - |
| 1777566140 | 10° C | 87% | 1008.4 hPa | 0 mm | - | 267 W/m² | - |
| 1777565840 | 10° C | 87% | 1008.5 hPa | 0 mm | - | 264 W/m² | - |
| 1777565540 | 9.44° C | 90% | 1008.5 hPa | 0 mm | - | 657 W/m² | - |
| 1777565240 | 9.44° C | 91% | 1008.5 hPa | 0 mm | - | 540 W/m² | - |
| 1777564940 | 8.89° C | 92% | 1008.8 hPa | 0 mm | - | 469 W/m² | - |
| 1777564638 | 8.89° C | 93% | 1008.8 hPa | 0 mm | - | 265 W/m² | - |
| 1777564038 | 8.89° C | 92% | 1008.9 hPa | 0 mm | - | 200 W/m² | - |
| 1777563738 | 8.89° C | 94% | 1008.8 hPa | 0 mm | - | 260 W/m² | - |
| 1777563437 | 8.89° C | 95% | 1009 hPa | 0 mm | - | 350 W/m² | - |
| 1777563137 | 8.89° C | 95% | 1008.9 hPa | 0 mm | - | 381 W/m² | - |
| 1777562837 | 8.89° C | 96% | 1008.9 hPa | 0 mm | - | 258 W/m² | - |
| 1777562236 | 8.33° C | 96% | 1008.8 hPa | 0 mm | - | 167 W/m² | - |
| 1777561938 | 8.33° C | 97% | 1008.8 hPa | 0 mm | - | 151 W/m² | - |
| 1777561636 | 8.33° C | 97% | 1008.8 hPa | 0 mm | - | 188 W/m² | - |
| 1777561335 | 8.33° C | 98% | 1008.7 hPa | 0 mm | - | 214 W/m² | - |
| 1777561035 | 8.33° C | 98% | 1008.7 hPa | 0 mm | - | 236 W/m² | - |
| 1777560735 | 8.33° C | 98% | 1008.7 hPa | 0 mm | - | 207 W/m² | - |
| 1777560436 | 8.33° C | 98% | 1008.7 hPa | 0 mm | - | 330 W/m² | - |
| 1777560134 | 7.78° C | 98% | 1008.5 hPa | 0 mm | - | 287 W/m² | - |
| 1777559834 | 7.78° C | 98% | 1008.5 hPa | 0 mm | - | 128 W/m² | - |
* Rain latest hour (hover to see other rain measurements)
** Current wind speed in m/s (hover to see current wind gust speed)